Weather in Krasnyy Luch

Russia / Pskov Oblast     57°04′01″N   30°05′03″E
temp.,
°C
wind,
m/s
gust,
m/s
humid.,
%
clouds,
%
prec.,
mm/h
press.,
hPa
HPBL,
m
13 april, tue
tue1300:00+9sse41170100 0.0 1022380
03:00+9sse3992100 0.0 1021331
06:00+7sse2598100 0.0 1020116
09:00+11sse2582100 0.0 1020290
12:00+15s235599 0.0 1020982
15:00+17sse2349100 0.0 10191500
18:00+14sse4676100 0.1 1018356
21:00+11sse2690100 0.4 1018175
14 april, wed
wed1400:00+9nw3596100 1.0 1017232
03:00+7nnw3595100 3.3 1017291
06:00+5n3694100 1.3 1017319
09:00+4n4694100 1.8 1018426
12:00+4n4594100 0.1 1019402
15:00+3n4592100 0.1 1019409
18:00+3n4793100 0.0 1020411
21:00+2n3896100 0.1 1021394
15 april, thu
thu1500:00+2nne3996100 0.8 1021375
03:00+3nne4109499 0.8 1021413
06:00+3nne41185100 0.0 1020462
09:00+4nne51381100 0.0 1021548
12:00+3nne51291100 1.4 1021577
15:00+4nne61393100 2.5 1021558
18:00+4ne61393100 1.8 1021580
21:00+5ne51394100 3.4 1022570
16 april, fri
fri1600:00+5ne51295100 2.3 1022590
03:00+5ne51395100 3.8 1022589
06:00+5ne51295100 0.7 1022542
09:00+5ne51292100 0.7 1023570
12:00+6ne51188100 0.1 1025599
15:00+10ne5107599 0.1 1025918
18:00+10ne61067100 0.0 1025991
21:00+7ne51366100 0.0 1027575
17 april, sat
sat1700:00+5ene513715 0.0 1029500
03:00+3ene4137712 0.0 1030450
06:00+2ne412825 0.0 1031386
09:00+6ene511660 0.0 1032602
12:00+10ene68470 0.0 10321205
15:00+12ene68415 0.0 10321560
18:00+12ene58490 0.0 10321401
21:00+7ene311680 0.0 1033284